Weather WX

World > North America > United States > North Carolina

Hilltop, North Carolina Regional Weather

Lat: 36.03N, Lon: 79.88W
Wx Zone: NCZ022
Warning FLW WEATHER ALERT - (More Info. Click Here) Warning
Feedback

Hilltop, NC Regional Weather

Expires:201907181000;;243878
ASUS42 KRAH 180910
RWRRAH
NORTH CAROLINA WEATHER ROUNDUP
NATIONAL WEATHER SERVICE RALEIGH NC
500 AM EDT THU JUL 18 2019

NOTE: "FAIR" INDICATES FEW OR NO CLOUDS BELOW 12,000 FEET WITH NO
SIGNIFICANT WEATHER AND/OR OBSTRUCTIONS TO VISIBILITY.


NCZ021-022-025-041-071-084-088-181000-
CENTRAL NORTH CAROLINA
  
CITY           SKY/WX    TMP DP  RH WIND       PRES   REMARKS
CHARLOTTE      MOCLDY    75  71  87 CALM      30.00S                  
GREENSBORO     FAIR      74  69  85 S8        29.98S                  
WINSTON-SALEM  FAIR      74  68  81 VRB3      30.00R                  
RALEIGH-DURHAM MOCLDY    75  73  93 SW6       29.97S                  
FORT BRAGG     FAIR      80  77  91 SW8       29.96F                  
FAYETTEVILLE   FAIR      78  76  93 SW8       29.97F                  
BURLINGTON     FAIR      77  67  71 SW6       29.97S                  
ROXBORO        NOT AVBL                                               
HENDERSON      NOT AVBL                                               
LOUISBURG      FAIR      73  72  94 CALM      29.99R                  
LAURINBURG     FAIR      77  75  93 SW5       29.99F FOG              
$$
 

SKY/WX - Weather  TMP - Temperature  DP - Dew Point  RH - Relative Humidity
WIND - Wind Direction/Speed PRES - Barometric Pressure VSB - Visibility
WCI - Wind Chill Index E13G22 Wind - East Wind 13 mph/Gusts of 22 mph